This is the latest recevied weather packets stored in our database for station/object WX7FGZ-7. If no packets are shown the sender has not sent any weather packets the latest 10 day(s).
| Time | Temp. | Humidity | Pressure | Rain* | Wind** | Luminosity | Snow |
|---|---|---|---|---|---|---|---|
| 1778002836 | 17.22° C | 35% | 1013.1 hPa | 0 mm | - | - | - |
| 1778002734 | 17.22° C | 34% | 1013.2 hPa | 0 mm | - | - | - |
| 1778002514 | 17.22° C | 34% | 1013.2 hPa | 0 mm | - | - | - |
| 1778002404 | 16.67° C | 37% | 1013.3 hPa | 0 mm | - | - | - |
| 1778002214 | 16.67° C | 37% | 1013.3 hPa | 0 mm | - | - | - |
| 1778002050 | 16.67° C | 35% | 1013.5 hPa | 0 mm | - | - | - |
| 1778001925 | 16.67° C | 35% | 1013.5 hPa | 0 mm | - | - | - |
| 1778000714 | 16.67° C | 36% | 1013.5 hPa | 0 mm | - | - | - |
| 1778000114 | 17.22° C | 37% | 1013.4 hPa | 0 mm | - | - | - |
| 1777999795 | 16.67° C | 37% | 1013.4 hPa | 0 mm | - | - | - |
| 1777999626 | 16.11° C | 38% | 1013.3 hPa | 0 mm | - | - | - |
| 1777999503 | 16.11° C | 38% | 1013.3 hPa | 0 mm | - | - | - |
| 1777998906 | 16.11° C | 38% | 1013.2 hPa | 0 mm | - | - | - |
| 1777997910 | 15.56° C | 42% | 1013.5 hPa | 0 mm | - | - | - |
| 1777997700 | 15.56° C | 42% | 1013.5 hPa | 0 mm | - | - | - |
| 1777997253 | 15° C | 41% | 1013.4 hPa | 0 mm | - | - | - |
| 1777997100 | 15° C | 41% | 1013.4 hPa | 0 mm | - | - | - |
| 1777995081 | 14.44° C | 42% | 1013.3 hPa | 0 mm | - | - | - |
| 1777993876 | 13.89° C | 43% | 1013.6 hPa | 0 mm | - | - | - |
| 1777992680 | 13.33° C | 44% | 1013.7 hPa | 0 mm | - | - | - |
| 1777991971 | 12.78° C | 43% | 1013.6 hPa | 0 mm | - | - | - |
| 1777991774 | 12.78° C | 43% | 1013.6 hPa | 0 mm | - | - | - |
| 1777991179 | 12.22° C | 46% | 1014 hPa | 0 mm | - | - | - |
| 1777990578 | 12.22° C | 46% | 1013.8 hPa | 0 mm | - | - | - |
| 1777989849 | 11.11° C | 46% | 1013.6 hPa | 0 mm | - | - | - |
* Rain latest hour (hover to see other rain measurements)
** Current wind speed in m/s (hover to see current wind gust speed)